Tracking 30922 objects as of 2-Jul-2025
HD Live streaming from Space Station
objects crossing your sky now

STARLINK-4536

Track STARLINK-4536 now!
10-day predictions
STARLINK-4536 is classified as:


NORAD ID: 53783
Int'l Code: 2022-111L
Perigee: 546.2 km
Apogee: 547.6 km
Inclination: 53.2 °
Period: 95.4 minutes
Semi major axis: 6917 km
RCS: Unknown
Launch date: September 11, 2022
Source: United States (US)
Launch site: AIR FORCE EASTERN TEST RANGE (AFETR)
Your satellite tracking list
Your tracking list is empty




NASA's NSSDC Master Catalog

Two Line Element Set (TLE):
1 53783U 22111L   25182.74807041 -.00000923  00000-0 -39913-4 0  9997
2 53783  53.2191 320.5602 0001067  96.7207 263.3907 15.08833448155816
Source of the keplerian elements: AFSPC